Airfield :







YOU CAN JOIN US ON...

 
LOGIN :

Register | Disclaimer

   EN    FR    IT 

 









Legend :    VFR   Marginal VFR   IFR   Intensive IFR   Very Intensive IFR
Visi :
Ceiling :
>= 8 km
>= 3000ft
5 to 8 km
1000 to 3000 ft
1500m to 5 km
500 to 1000 ft
800 to 1500m
200 to 500 ft
< 800m
< 200 ft
Symbols :   Thunderstorms  Fog  Heavy snow  Heavy precipitations  Wind > 20 kt






- Airport Elevation : 1040 ft


KAFN - Jaffrey Silver Ranch

CURRENT METAR :
  • 162152Z AUTO 00000KT 10SM CLR M03/M19 A3044 RMK AO2 SLP331 T10331194

EXPIRED METARs :
  • 162052Z AUTO 35005KT 10SM CLR M02/M20 A3042 RMK AO2 SLP321 T10171200 56008
  • 161952Z AUTO 35006KT 10SM CLR M01/M21 A3042 RMK AO2 SLP320 T10061211
  • 161852Z AUTO 35006KT 10SM CLR 00/M21 A3042 RMK AO2 SLP322 T00001211

TAF N/A



MET'MAP, your aeronautical weather chart ! - Copyright ORBIFLY December 2007 - Disclaimer

ORBIFLY MET'MAP TEAM :

Programming & Development : Alexandra Zaïnal
Concept & Development : Baudouin d'Aumeries
Co-Development & Prog : Marc-Olivier Méhu
Technical & hardware support : Manuel Goepfert

Contact : metmap@orbifly.com




SOURCES & CREDITS :

   NOAA